TimePST,TemperatureF,Dew PointF,Humidity,Sea Level PressureIn,VisibilityMPH,Wind Direction,Wind SpeedMPH,Gust SpeedMPH,PrecipitationIn,Events,Conditions,WindDirDegrees,DateUTC
12:55 AM,23.0,19.9,88,30.18,3.0,SSE,4.6,-,N/A,,Clear,150,2012-12-08 08:55:00
1:55 AM,23.0,19.9,88,30.19,4.0,Calm,Calm,-,N/A,,Clear,0,2012-12-08 09:55:00
2:55 AM,19.9,18.0,92,30.19,9.0,Calm,Calm,-,N/A,,Clear,0,2012-12-08 10:55:00
3:55 AM,19.9,18.0,92,30.20,7.0,Calm,Calm,-,N/A,,Clear,0,2012-12-08 11:55:00
4:55 AM,19.0,17.1,92,30.21,5.0,Calm,Calm,-,N/A,,Clear,0,2012-12-08 12:55:00
5:55 AM,21.0,19.0,92,30.21,3.0,Calm,Calm,-,N/A,,Clear,0,2012-12-08 13:55:00
6:55 AM,21.0,19.0,92,30.20,6.0,SE,3.5,-,N/A,,Clear,130,2012-12-08 14:55:00
7:55 AM,23.0,21.0,92,30.23,6.0,Calm,Calm,-,N/A,,Scattered Clouds,0,2012-12-08 15:55:00
8:55 AM,24.1,23.0,96,30.26,10.0,Calm,Calm,-,N/A,,Clear,0,2012-12-08 16:55:00
9:55 AM,28.0,25.0,88,30.26,10.0,Calm,Calm,-,N/A,,Clear,0,2012-12-08 17:55:00
10:55 AM,32.0,26.1,79,30.25,10.0,Calm,Calm,-,N/A,,Clear,0,2012-12-08 18:55:00
11:55 AM,34.0,27.0,75,30.22,10.0,Calm,Calm,-,N/A,,Clear,0,2012-12-08 19:55:00
12:55 PM,36.0,25.0,64,30.19,10.0,Calm,Calm,-,N/A,,Clear,0,2012-12-08 20:55:00
1:55 PM,37.9,25.0,60,30.19,10.0,Calm,Calm,-,N/A,,Clear,0,2012-12-08 21:55:00
2:55 PM,39.0,25.0,57,30.19,10.0,Calm,Calm,-,N/A,,Clear,0,2012-12-08 22:55:00
3:55 PM,36.0,24.1,62,30.21,10.0,Calm,Calm,-,N/A,,Clear,0,2012-12-08 23:55:00
4:55 PM,32.0,25.0,75,30.21,10.0,SW,3.5,-,N/A,,Clear,230,2012-12-09 00:55:00
5:55 PM,30.9,23.0,72,30.23,10.0,ESE,4.6,-,N/A,,Clear,110,2012-12-09 01:55:00
6:55 PM,30.0,24.1,79,30.24,10.0,East,3.5,-,N/A,,Clear,80,2012-12-09 02:55:00
7:55 PM,28.0,24.1,85,30.26,7.0,Calm,Calm,-,N/A,,Clear,0,2012-12-09 03:55:00
8:55 PM,26.1,24.1,92,30.28,10.0,West,3.5,-,N/A,,Clear,280,2012-12-09 04:55:00
9:55 PM,27.0,23.0,85,30.30,10.0,Calm,Calm,-,N/A,,Clear,0,2012-12-09 05:55:00
10:55 PM,25.0,21.9,88,30.29,5.0,Calm,Calm,-,N/A,,Clear,0,2012-12-09 06:55:00
11:55 PM,24.1,21.9,91,30.29,6.0,Calm,Calm,-,N/A,,Clear,0,2012-12-09 07:55:00